Temperature
13 11 12 13 13 14 14 14 14 15 16 15 14 15 16 17 16 16 18 19 20 20 21 21 20 20 20 19 18 18 17 16 15 14 13 12 12 12 11 11 11 11 10 10
11 11 13 14 14 14 14 14 14 14 16 15 14 14 15 15 15 17 18 19 20 20 20 20 20 20 20 19 19 18 17 16 15 15 14 13 13 12 11 11 11 10 10 10
11 12 14 14 13 13 13 13 13 14 15 16 15 14 14 15 16 17 18 19 20 20 20 20 20 20 20 19 19 18 18 17 16 15 14 13 12 11 11 11 11 10 10 10
11 13 14 13 13 14 13 14 14 14 14 13 14 12 13 14 15 15 17 18 19 20 20 20 20 20 20 19 19 18 18 17 16 15 14 13 12 12 11 11 11 11 10 10
11 12 13 13 14 14 14 15 14 14 13 12 12 12 12 13 14 15 16 18 19 20 20 20 20 20 20 19 19 18 18 17 16 15 14 13 13 12 12 11 11 10 10 10
11 12 13 13 14 14 14 14 14 12 12 12 12 12 12 13 14 15 16 18 19 20 20 20 20 19 19 19 18 18 17 16 16 15 14 13 13 12 12 11 11 10 10 10
10 12 12 13 13 13 13 12 12 11 10 11 12 12 12 13 14 15 16 17 19 19 19 19 19 19 19 18 18 17 17 16 15 14 14 13 13 12 12 12 11 11 10 10
9 10 12 12 13 12 13 13 11 11 10 11 11 11 13 14 15 16 17 18 18 19 19 19 19 19 18 18 17 17 16 16 15 14 14 13 12 12 12 11 11 11 11 11
10 10 12 12 13 13 12 13 13 11 10 11 11 11 13 14 14 14 15 16 17 18 19 19 19 18 18 17 17 16 16 15 15 14 13 12 12 12 11 11 11 11 10 10
9 9 11 12 13 13 13 13 12 11 10 11 11 11 13 14 14 14 14 14 17 18 18 18 18 18 17 17 16 16 15 15 14 13 13 12 12 11 11 11 11 10 10 10
9 9 10 11 12 12 12 12 12 11 10 10 10 11 13 14 14 14 14 16 17 18 18 18 18 17 17 16 16 15 14 14 13 13 12 12 11 11 11 10 10 10 10 10
8 9 9 10 12 13 12 12 12 11 10 10 10 12 14 13 14 14 15 16 17 18 18 18 17 17 16 16 15 14 14 13 13 12 12 11 11 11 10 10 10 10 9 9
8 8 8 9 10 11 12 11 12 12 10 9 10 12 14 13 13 14 15 16 17 18 18 17 17 16 16 16 15 14 14 13 12 12 11 11 10 10 10 10 10 9 9 9
9 7 8 9 10 10 10 11 11 11 11 10 10 12 14 14 13 13 14 16 17 17 17 17 17 16 16 16 15 14 13 12 12 11 11 10 10 10 10 10 9 9 9 9
8 7 8 9 10 10 10 11 11 11 12 11 11 12 13 13 13 13 15 16 16 16 16 17 17 16 16 15 15 14 13 12 11 11 11 10 10 10 9 9 9 9 8 8
7 7 7 8 9 10 10 11 12 12 12 11 11 12 13 14 14 14 14 15 15 16 17 17 17 16 16 15 15 14 13 12 12 11 11 10 10 9 9 9 8 8 8 8
6 6 7 8 9 9 9 11 12 12 12 12 12 13 13 13 13 13 15 15 16 17 17 17 17 17 16 16 15 14 14 12 12 11 11 10 10 9 9 9 8 8 8 7
6 6 6 7 8 8 10 11 12 12 12 13 13 13 13 13 15 17 17 17 17 17 17 17 17 17 16 16 15 14 13 12 12 11 10 10 9 9 9 8 8 8 7 7
7 6 6 6 7 8 9 10 11 12 12 12 13 13 12 14 14 14 17 17 18 18 18 17 17 17 16 16 15 14 13 12 11 11 10 10 9 9 8 8 8 7 7 7
7 7 6 6 7 8 10 11 11 12 11 12 12 12 12 11 12 13 16 17 17 17 17 17 17 16 16 15 14 14 13 12 12 11 11 10 9 9 8 8 7 7 7 6
6 6 6 6 7 8 10 11 11 11 12 12 13 13 12 12 14 15 16 16 17 17 17 16 16 16 15 15 14 13 13 12 12 11 10 9 9 8 8 7 7 6 6 5
6 6 6 6 7 8 10 9 11 12 13 14 14 14 13 14 14 15 16 16 16 16 16 16 15 15 15 14 14 13 13 12 11 10 9 9 8 7 7 6 6 5 5 5
6 7 7 7 8 9 10 10 13 14 14 14 15 15 14 14 14 14 15 15 16 16 15 15 15 14 14 13 13 13 12 11 10 9 9 8 8 7 6 6 5 5 4 4
5 6 6 6 7 9 10 11 12 13 14 15 15 15 15 14 14 14 14 15 15 15 15 14 14 14 13 13 12 12 11 10 10 9 8 8 7 6 6 5 5 4 4 3
5 5 6 6 7 8 10 11 12 13 14 14 15 15 15 15 14 14 14 14 14 14 14 14 13 13 13 12 11 11 10 10 9 8 8 7 6 6 5 5 4 4 3 3
5 6 6 7 8 8 9 12 12 12 13 14 14 14 14 14 14 14 14 14 14 14 13 13 13 12 12 11 11 10 9 9 8 8 7 6 6 5 5 4 3 3 2 2
Wind_Speed
9 9 16 20 18 10 8 8 8 8 6 7 12 15 16 13 9 11 12 12 13 15 15 13 14 15 14 15 17 19 19 18 16 13 13 12 11 10 8 9 14 16 16 15
8 19 21 13 12 12 10 10 9 7 6 7 10 15 14 13 11 12 14 14 15 14 12 11 11 12 15 18 19 20 20 19 19 15 13 10 9 7 7 7 11 15 16 16
20 13 14 12 12 15 14 14 13 8 4 3 4 9 11 10 10 11 11 12 13 15 15 12 12 13 15 17 20 20 21 19 18 14 10 8 6 4 5 7 8 10 15 15
18 12 14 15 16 17 19 14 12 10 6 6 5 7 9 9 10 11 13 13 14 14 13 12 12 13 15 18 17 18 19 18 17 16 16 17 12 9 9 8 7 8 13 14
14 14 17 21 21 19 10 9 11 10 9 8 6 6 9 7 11 13 14 15 14 13 13 13 13 14 14 14 15 15 16 16 16 17 18 18 11 8 6 7 9 9 8 11
13 10 14 15 14 14 8 5 4 3 4 12 14 10 9 8 11 10 11 12 12 11 11 11 10 9 10 10 11 13 15 15 16 17 17 18 15 12 12 11 11 9 6 6
14 14 11 8 11 11 10 8 5 6 7 11 9 10 11 11 11 13 14 13 12 10 9 9 9 10 11 12 12 13 16 15 16 17 17 17 17 17 16 14 13 11 8 6
13 14 15 11 14 14 17 16 11 9 8 5 6 11 10 12 11 11 11 11 10 9 9 10 11 11 12 13 13 14 15 14 16 17 16 15 15 13 12 13 12 13 10 9
12 11 9 12 9 14 16 16 11 6 4 4 7 7 8 6 7 9 10 9 10 10 10 10 9 10 11 12 13 14 15 13 15 16 14 14 14 13 13 12 11 10 8 8
5 6 8 10 8 10 13 13 7 8 9 8 7 7 7 8 12 11 11 11 11 9 9 9 9 9 10 10 10 11 12 13 13 14 14 12 13 13 13 12 13 12 11 10
4 6 6 10 14 17 11 13 9 8 7 8 6 8 9 12 13 13 14 12 11 11 10 9 8 8 8 8 9 10 10 10 11 12 12 12 12 12 13 13 13 13 11 12
6 4 8 12 10 14 12 13 13 14 9 8 6 9 7 11 12 13 13 11 10 10 9 8 8 8 8 9 9 10 10 11 11 11 11 12 11 12 12 12 12 12 13 12
7 4 5 5 5 9 12 12 12 10 6 7 8 9 4 4 7 9 11 11 10 9 8 7 7 9 9 10 10 10 10 10 10 10 11 11 12 12 13 12 12 12 12 11
8 7 9 14 11 11 12 13 13 11 12 12 13 11 6 6 8 9 9 10 10 9 9 9 9 9 9 10 10 10 10 10 10 11 11 12 12 12 12 11 12 12 12 12
7 9 9 9 8 12 12 17 18 18 17 15 15 15 13 11 11 11 10 9 9 9 9 11 10 9 9 9 9 10 10 10 10 11 11 11 10 10 10 11 11 11 11 11
7 8 9 10 10 11 13 18 22 23 20 17 13 15 11 10 8 8 9 10 11 11 12 12 11 10 11 11 11 10 10 10 10 11 11 9 10 10 10 11 10 10 10 9
9 6 8 10 9 6 15 23 25 21 20 21 22 22 8 10 12 14 13 12 13 13 13 13 13 13 13 13 12 12 11 10 10 10 10 10 10 10 10 10 10 10 10 9
14 11 6 6 7 13 13 12 15 19 19 20 20 15 13 14 13 12 12 14 14 13 12 12 12 11 11 10 10 9 10 11 11 10 10 10 10 10 10 10 10 9 8 8
16 14 7 6 9 9 8 9 16 17 19 19 21 17 12 10 7 9 11 13 14 14 12 12 12 10 10 10 11 11 10 10 10 11 11 11 11 11 10 10 9 7 7 7
12 12 8 6 8 12 11 9 10 10 15 15 18 18 12 11 12 15 11 11 11 10 9 9 8 8 9 9 11 12 11 11 12 11 10 10 11 11 11 10 8 6 6 6
9 10 14 10 8 10 8 7 12 13 14 11 16 17 15 17 18 11 10 10 10 10 9 9 9 9 9 10 12 12 11 12 10 9 9 9 9 10 9 8 6 7 6 6
9 9 12 10 9 11 5 9 14 10 5 6 11 15 16 17 13 9 11 12 11 10 9 9 9 8 7 10 12 12 10 9 9 10 10 9 9 8 8 8 7 7 7 6
9 9 6 10 10 5 5 8 8 5 5 6 7 9 12 12 11 10 10 11 11 11 10 9 10 9 7 9 11 12 9 10 11 11 10 9 9 7 8 8 8 6 6 5
5 3 4 5 9 10 9 7 5 5 6 6 6 7 9 10 11 11 11 11 11 10 10 10 12 11 8 8 8 9 10 11 12 11 10 9 9 7 6 6 6 6 6 5
7 5 6 9 9 7 9 8 6 5 3 2 3 5 8 10 10 10 11 12 11 9 8 10 12 12 10 9 9 9 11 12 12 10 9 8 7 8 6 5 5 6 5 6
10 10 11 11 9 7 10 10 7 5 6 5 4 4 5 9 11 10 11 10 11 11 10 10 10 11 10 10 10 9 10 12 13 10 8 7 6 6 6 5 3 3 3 4
Wind_Direction
188 188 209 208 205 199 186 195 218 230 226 197 223 238 245 245 236 237 238 238 237 236 237 227 215 204 195 190 187 186 184 181 177 179 179 181 186 183 182 184 184 181 177 173
188 215 215 202 199 205 213 223 233 257 245 213 237 248 249 244 235 232 232 233 234 238 241 232 214 197 192 190 188 186 186 183 182 185 184 182 174 176 179 179 181 180 176 174
206 214 196 194 198 206 217 219 225 234 289 286 266 276 261 257 241 241 236 233 234 233 233 226 210 200 192 191 189 188 188 185 184 175 165 151 139 136 167 182 183 180 176 173
218 217 190 198 206 202 225 215 213 223 233 255 220 265 264 250 256 247 243 241 239 236 229 221 207 197 195 195 190 187 185 183 181 173 173 173 178 183 187 179 176 173 174 172
214 199 197 206 207 198 211 192 204 218 221 244 239 244 266 248 246 246 243 242 240 233 223 217 208 200 196 190 185 184 181 181 179 179 179 180 182 177 159 160 165 170 173 172
229 215 203 208 206 198 178 151 180 213 213 242 229 222 263 225 222 233 237 236 234 229 219 215 207 192 187 181 179 178 179 182 180 181 181 183 179 168 164 169 174 175 172 172
225 230 224 196 190 192 175 165 190 213 221 239 211 215 246 229 221 220 228 232 230 219 204 201 192 185 181 178 178 178 180 182 181 182 183 185 182 177 179 178 179 177 176 181
200 216 211 203 198 193 194 184 190 198 207 237 197 223 244 237 228 224 224 222 217 209 205 202 197 190 186 183 179 178 181 181 181 183 185 183 180 182 185 182 181 185 188 185
199 217 195 203 187 179 190 202 186 164 184 208 232 253 283 243 226 220 216 210 210 207 204 203 198 191 185 183 183 182 181 180 182 183 181 181 181 182 182 180 179 182 181 175
178 216 204 191 170 196 189 177 170 185 189 222 249 235 228 216 213 213 210 210 212 207 202 201 197 191 187 183 180 178 180 182 180 179 181 184 183 182 179 178 182 181 177 173
203 195 202 182 192 191 179 186 180 179 191 190 226 246 216 211 207 206 213 210 203 199 198 198 197 190 180 173 173 176 177 175 177 179 180 179 180 178 177 181 184 181 178 175
202 193 211 208 216 196 189 191 182 192 203 194 206 253 240 216 211 202 208 209 201 196 194 191 185 177 175 178 179 181 180 180 181 179 178 179 176 174 178 181 180 177 177 178
199 197 198 201 207 196 199 199 195 189 175 188 200 246 261 220 216 204 197 197 194 189 185 182 180 183 185 185 185 185 184 185 180 175 177 176 176 177 181 179 176 175 175 175
204 209 211 211 212 195 205 207 198 188 209 215 218 226 234 218 214 212 203 196 191 189 186 186 191 193 191 189 187 186 186 182 178 176 178 181 182 181 178 173 172 173 173 173
198 221 231 244 236 204 218 211 205 209 209 211 220 220 221 215 210 209 203 195 189 194 196 197 197 196 191 189 189 187 185 181 177 176 181 185 177 170 167 168 169 169 170 174
196 213 225 248 238 218 224 219 214 217 215 219 226 234 222 220 207 213 207 196 197 203 204 202 198 194 193 192 189 185 184 180 174 178 182 173 166 166 167 168 166 165 168 169
199 199 207 231 228 231 230 215 211 216 218 214 224 230 197 200 208 210 208 205 204 206 204 200 199 198 197 195 187 185 180 170 171 175 173 169 167 168 168 164 164 169 172 169
209 206 207 212 204 222 234 208 205 216 224 217 223 222 199 208 213 215 206 203 209 206 201 201 199 198 196 186 179 170 162 165 169 171 170 169 166 166 163 164 170 171 169 173
208 201 199 196 212 246 266 212 192 202 229 220 222 226 208 199 206 238 221 205 207 205 199 198 197 192 181 175 168 158 161 164 168 174 174 172 168 165 165 170 172 168 167 174
198 192 193 197 207 226 229 210 181 180 237 222 216 223 205 172 213 235 215 200 204 199 189 185 178 166 165 168 158 158 165 169 179 179 172 166 165 167 171 173 168 162 167 174
185 191 199 205 218 246 238 187 148 186 229 216 207 214 199 201 220 219 184 189 190 186 180 167 158 164 170 160 155 162 167 181 177 158 152 156 161 164 163 159 156 154 154 154
190 193 199 199 213 237 218 157 182 212 209 197 202 207 206 213 215 190 181 181 174 169 164 156 153 157 154 153 154 160 172 167 144 142 146 150 151 151 148 147 148 149 150 154
202 198 194 206 222 251 209 211 225 200 201 206 203 207 197 202 201 187 181 173 170 166 160 153 149 146 143 151 155 160 161 143 138 138 143 143 141 140 144 149 150 149 152 159
233 193 189 231 244 256 262 262 258 235 217 213 203 191 183 187 187 179 171 166 161 157 154 149 145 145 149 150 148 150 143 140 137 140 140 140 139 137 137 142 150 155 163 167
229 200 217 242 257 255 256 253 252 271 246 189 182 182 180 171 172 171 165 163 160 153 150 150 152 152 151 143 138 138 140 137 135 136 137 137 138 141 140 141 156 163 177 178
228 216 213 232 228 225 244 252 251 244 233 200 173 163 169 168 164 160 160 158 154 150 147 145 144 144 143 139 137 138 140 139 138 139 141 142 140 138 138 134 110 110 143 175
Height
1460 1466 1464 1462 1464 1468 1472 1475 1476 1472 1467 1471 1473 1470 1465 1462 1463 1463 1462 1463 1463 1464 1467 1469 1472 1474 1477 1480 1482 1485 1489 1493 1497 1500 1504 1507 1511 1515 1518 1522 1525 1528 1530 1532
1459 1456 1450 1455 1461 1466 1469 1472 1473 1470 1465 1468 1470 1467 1460 1457 1457 1455 1455 1455 1456 1457 1459 1461 1464 1466 1469 1472 1475 1479 1483 1486 1490 1494 1497 1502 1506 1510 1514 1518 1521 1524 1526 1529
1445 1442 1446 1453 1457 1462 1464 1467 1468 1470 1465 1464 1468 1467 1460 1452 1450 1449 1448 1448 1449 1450 1451 1453 1456 1458 1462 1465 1468 1472 1476 1480 1484 1489 1494 1499 1504 1507 1511 1513 1516 1519 1522 1525
1440 1439 1442 1447 1449 1454 1457 1455 1461 1466 1472 1475 1471 1477 1460 1451 1447 1444 1442 1442 1441 1442 1444 1446 1448 1451 1454 1458 1462 1466 1470 1474 1479 1483 1487 1491 1494 1498 1501 1506 1511 1515 1518 1521
1431 1432 1435 1438 1438 1444 1448 1450 1457 1462 1468 1473 1471 1475 1460 1449 1446 1439 1435 1434 1434 1435 1437 1439 1441 1444 1448 1452 1456 1460 1465 1469 1473 1477 1481 1485 1489 1494 1499 1503 1508 1511 1514 1517
1425 1425 1427 1428 1432 1438 1444 1451 1457 1463 1469 1474 1465 1470 1458 1445 1436 1432 1429 1428 1428 1429 1431 1433 1436 1439 1443 1447 1451 1455 1459 1463 1468 1472 1476 1480 1484 1489 1493 1498 1502 1506 1510 1513
1424 1422 1421 1423 1431 1436 1441 1454 1467 1471 1473 1466 1456 1459 1445 1431 1425 1423 1422 1422 1422 1424 1426 1428 1431 1434 1437 1441 1445 1449 1453 1457 1462 1466 1470 1475 1479 1484 1488 1493 1497 1501 1504 1507
1421 1419 1415 1416 1419 1427 1432 1441 1455 1463 1465 1460 1453 1450 1433 1419 1416 1415 1416 1417 1419 1420 1422 1424 1427 1429 1432 1436 1439 1443 1447 1451 1456 1460 1465 1470 1475 1479 1484 1488 1492 1496 1499 1503
1412 1411 1406 1407 1408 1416 1428 1432 1435 1449 1454 1456 1449 1438 1425 1414 1413 1412 1413 1414 1414 1416 1418 1421 1423 1425 1428 1431 1434 1438 1442 1446 1451 1455 1460 1465 1470 1474 1478 1483 1488 1492 1495 1499
1407 1410 1402 1402 1406 1409 1413 1422 1434 1442 1451 1453 1444 1436 1426 1412 1410 1410 1410 1410 1410 1413 1415 1417 1420 1422 1425 1427 1431 1435 1438 1442 1446 1451 1455 1460 1465 1469 1474 1479 1483 1487 1491 1495
1404 1407 1403 1400 1400 1404 1412 1418 1421 1432 1437 1442 1444 1430 1405 1402 1401 1403 1404 1404 1406 1409 1411 1414 1417 1419 1422 1424 1427 1431 1434 1438 1442 1446 1451 1455 1460 1465 1469 1474 1478 1482 1486 1490
1401 1402 1402 1396 1390 1391 1399 1404 1411 1422 1429 1430 1432 1420 1393 1393 1393 1395 1397 1400 1403 1406 1408 1411 1414 1416 1418 1421 1424 1427 1430 1434 1438 1442 1447 1451 1456 1460 1465 1469 1473 1477 1481 1485
1398 1401 1402 1399 1398 1394 1394 1397 1400 1407 1418 1425 1427 1413 1390 1390 1391 1391 1393 1396 1399 1402 1406 1408 1411 1413 1415 1418 1420 1423 1426 1430 1434 1438 1442 1447 1451 1455 1460 1464 1468 1473 1477 1480
1393 1395 1394 1390 1384 1388 1391 1393 1395 1402 1408 1412 1410 1400 1392 1389 1390 1390 1391 1393 1396 1399 1402 1405 1407 1409 1412 1414 1417 1420 1423 1426 1430 1434 1438 1442 1446 1451 1455 1460 1464 1468 1472 1475
1388 1389 1386 1383 1380 1381 1383 1385 1388 1390 1390 1398 1394 1393 1387 1386 1386 1386 1388 1391 1394 1396 1399 1401 1403 1406 1408 1411 1413 1416 1419 1423 1426 1430 1433 1438 1442 1447 1451 1456 1460 1464 1467 1471
1384 1386 1384 1381 1377 1376 1376 1375 1377 1379 1381 1385 1386 1384 1378 1379 1382 1384 1386 1388 1390 1392 1394 1397 1400 1402 1404 1407 1409 1412 1415 1419 1422 1426 1429 1434 1438 1443 1447 1451 1455 1459 1463 1466
1382 1383 1383 1379 1374 1375 1373 1362 1365 1367 1367 1372 1375 1369 1373 1376 1378 1379 1381 1384 1385 1387 1390 1393 1395 1398 1400 1403 1406 1408 1412 1415 1419 1422 1426 1430 1435 1439 1443 1447 1451 1454 1458 1461
1374 1377 1379 1377 1377 1376 1355 1347 1352 1356 1356 1359 1360 1360 1365 1368 1370 1372 1375 1378 1380 1383 1386 1388 1391 1394 1397 1400 1403 1406 1409 1412 1415 1419 1423 1427 1431 1435 1439 1443 1446 1450 1453 1456
1361 1369 1373 1372 1369 1361 1351 1344 1344 1350 1350 1348 1351 1353 1358 1362 1367 1367 1369 1372 1375 1378 1381 1384 1387 1390 1393 1396 1399 1402 1405 1409 1412 1415 1419 1423 1427 1431 1435 1438 1442 1445 1449 1451
1352 1358 1366 1366 1363 1354 1337 1334 1333 1344 1347 1338 1342 1346 1352 1359 1365 1358 1361 1366 1369 1373 1376 1380 1383 1386 1389 1392 1395 1398 1401 1405 1408 1412 1415 1420 1424 1427 1431 1434 1438 1441 1444 1447
1351 1353 1356 1359 1355 1343 1330 1327 1332 1345 1334 1327 1332 1336 1342 1346 1345 1348 1355 1359 1363 1367 1371 1375 1378 1381 1385 1388 1391 1394 1398 1401 1405 1409 1413 1417 1420 1424 1428 1431 1434 1437 1440 1443
1343 1344 1346 1349 1349 1339 1322 1324 1325 1322 1320 1321 1323 1326 1331 1333 1337 1343 1348 1352 1357 1361 1366 1370 1374 1377 1381 1384 1388 1391 1394 1398 1402 1406 1410 1414 1417 1421 1424 1427 1430 1433 1435 1438
1334 1332 1333 1333 1327 1319 1316 1315 1314 1316 1317 1318 1319 1321 1324 1327 1331 1336 1341 1346 1351 1356 1360 1365 1369 1373 1377 1381 1385 1388 1392 1396 1399 1403 1407 1411 1414 1418 1421 1424 1426 1429 1431 1433
1329 1327 1329 1327 1320 1315 1313 1312 1312 1313 1313 1314 1315 1317 1320 1322 1325 1330 1335 1340 1346 1351 1356 1360 1365 1369 1374 1378 1382 1386 1390 1393 1397 1401 1405 1408 1411 1415 1418 1420 1423 1425 1426 1428
1324 1324 1323 1322 1315 1312 1308 1308 1309 1311 1311 1311 1313 1314 1316 1318 1321 1325 1330 1335 1341 1347 1352 1357 1362 1366 1371 1375 1380 1384 1388 1391 1395 1399 1402 1406 1409 1412 1414 1417 1419 1421 1423 1425
1314 1316 1316 1311 1308 1310 1305 1305 1307 1309 1309 1309 1310 1312 1314 1316 1318 1322 1327 1332 1338 1344 1349 1355 1360 1364 1369 1374 1378 1382 1386 1390 1393 1397 1400 1403 1406 1409 1411 1414 1416 1418 1420 1421